OBJECT E, 66057

Orbit data source: Space-Track

You're viewing an Uncataloged Satellite

Recently launched and/or uncataloged satellites may have evolving metadata. Metadata may include but not limited to: Owner, Maufacturer, Bus, Motor, and Mission.

OBJECT E, 66057 is a satellite in SSO that was launched on Sun, 19 Oct 2025 UTC launched from the Jiuquan Satellite Launch Center, China (JSC). Unknown objects in Earth's orbit typically refer to objects detected orbiting the Earth but have not yet been identified or cataloged. These objects could be anything from previously untracked satellites, spent rocket stages, debris from satellite collisions, or even natural meteoroids temporarily captured by Earth's gravity.

Loading next visibility...
Identifier
66057, 2025-234E
Orbit
SSO
Country
Flag of TBDTBD
Related business
Manufacturer
CAS
Mission
Spacecraft
Bus & Motor
Unknown
Mass
500 kg wet, 500 kg dry
Launch date (UTC)
2025-10-19 (3 days ago)
Launch vehicle
Unknown
Launch site
Jiuquan Satellite Launch Center, China (JSC)
Object type
Unknown
Shape & HBR
Unknown
Radar Cross Section
RCS unknown

Expand to show TLE details & history
Last TLE update: 2 days ago

TLE from 2 days ago
0 OBJECT E
1 66057U 25234E   25293.17857359 -.00000072  00000-0  00000+0 0  9995
2 66057  97.5180 358.8704 0019153 274.5220  85.3827 15.20597807   166
Epoch: 2025-10-20T04:17Z
TLE epoch observation values (Epoch: 2025-10-20T04:17:08.758Z)
Latitude
-0.00002°
Longitude
-94.3007°
Altitude
506.088 km
Speed
7.612 km/s
True Right ascension
23h 55m 28s
True Declination
0° 00' 00"
Sunlit
Object was in full shadow at epoch
Visualization orbit readout
Latitude
Unknown
Longitude
Unknown
Altitude
Unknown
Speed
Unknown
Apparent Right ascension
Unknown
Apparent Declination
Unknown
Sunlit
N/A
Visualization observer readout
Local Sidereal Time
21:48:25
Azimuth
Unknown
Elevation
Unknown
Doppler factor
Unknown
Orbital elements
Apogee altitude
514.182 km
Perigee altitude
487.83 km
Semi-major axis
6,879.143 km
Eccentricity
0.00192
Inclination
97.518°
RAAN
358.8704°
Arg. of periapsis
274.522°
True anomaly
85.60151°
Mean anomaly
85.3827°
Eccentric anomaly
85.4921°
Mean motion
3.80401 °/min
Orbital period
94.64 mins
BSTAR
0
Loading maneuver chart data...
Computing Atmospheric mass density...
Loading historical data...
Loading historical data...
Loading historical data...
Loading historical data...
Loading historical data...
Loading historical data...
Loading historical data...
Other satellites on launch #234 in the year 2025 (2025-10-19 UTC)

Documentation

Showing up to 5 results
|